Regional Weather Roundup
Issued by NWS

Home | Current Version | Previous Version | Text Only | Print | Product List | Glossary On
Versions: 1 2 3 4 5 6 7 8 9 10 11 12 13 14 15 16 17 18 19 20 21 22 23 24 25 26 27 28 29 30 31 32 33 34 35 36 37 38 39 40 41 42 43 44 45 46 47 48 49 50
000
ASUS46 KSEW 070210
RWRWA

WASHINGTON REGIONAL WEATHER ROUNDUP
NATIONAL WEATHER SERVICE SEATTLE WA
600 PM PST FRI MAR 06 2015

NOTE:"FAIR" INDICATES FEW OR NO CLOUDS BELOW 12,000 FEET WITH NO
SIGNIFICANT WEATHER AND/OR OBSTRUCTIONS TO VISIBILITY.

WAZ505-507>509-070300-
SEATTLE, TACOMA, EVERETT, AND VICINITY

CITY           SKY/WX    TMP DP  RH WIND       PRES   REMARKS
EVERETT        CLEAR     50  39  66 N3        30.36F
BOEING FIELD   PTCLDY    57  37  47 CALM      30.35F
RENTON         PTCLDY    54  40  59 CALM      30.35S
SEATAC AIRPORT MOCLDY    53  35  50 N6        30.35F
JBLM-MCCHORD   PTCLDY    55  35  47 NE2       30.34F
PUYALLUP       FAIR      54  37  54 CALM      30.34F
BREMERTON      PTCLDY    52  41  66 CALM      30.37F
JBLM-FT LEWIS  PTCLDY    56  38  50 N2        30.33F
TACOMA NARROWS PTCLDY    54  35  48 N5        30.35F
$$

WAZ001-503-506-510-514-515-070300-
NORTH INTERIOR

CITY           SKY/WX    TMP DP  RH WIND       PRES   REMARKS
BELLINGHAM     PTCLDY    50  36  58 CALM      30.36F
FRIDAY HARBOR  PTCLDY    49  36  61 NW3       30.37F
EASTSOUND      PTCLDY    46  41  81 CALM      30.36S
PORT ANGELES   PTCLDY    48  38  68 SE6       30.36F
NAS WHIDBEY    MOCLDY    50  42  74 CALM      30.37F
ARLINGTON      CLEAR     48  37  66 NW6       30.37S
BURLINGTON     CLEAR     46  37  71 NW5       30.37F
$$

WAZ020-022-039-040-504-511-512-070300-
SOUTHWEST INTERIOR

CITY           SKY/WX    TMP DP  RH WIND       PRES   REMARKS
SHELTON        PTCLDY    55  38  52 N3        30.33S
OLYMPIA        PTCLDY    54  36  50 N5        30.34F
CHEHALIS       FAIR      57  45  62 CALM      30.33S
KELSO          MOCLDY    59  37  44 CALM      30.34S
VANCOUVER      MOCLDY    61  36  39 CALM      30.31S
SCAPPOOSE, OR  MOCLDY    56  42  59 W5        30.30F
PORTLAND, OR   MOCLDY    57  39  51 NW7       30.31F
$$

WAZ021-516-517-070300-
WASHINGTON COAST

CITY           SKY/WX    TMP DP  RH WIND       PRES   REMARKS
FORKS          PTCLDY    54  35  48 CALM      30.35S
HOQUIAM        PTCLDY    53  44  71 SW7       30.34S
ASTORIA, OR    MOCLDY    50  46  86 SW5       30.33F
$$

WAZ019-023-024-040-518-519-070300-
CASCADE MOUNTAINS AND COLUMBIA GORGE

CITY           SKY/WX    TMP DP  RH WIND       PRES   REMARKS
TROUTDALE, OR  MOCLDY    61  38  42 NW3       30.30S
THE DALLES, OR MOCLDY    59  36  42 CALM      30.26F
$$

WAZ026-027-041>044-520-521-070300-
EAST SLOPES

CITY           SKY/WX    TMP DP  RH WIND       PRES   REMARKS
OMAK           MOCLDY    49  31  49 CALM      30.30F
WENATCHEE      PTCLDY    54  33  45 E7        30.28S
ELLENSBURG     PTCLDY    55  36  48 E6        30.27S
YAKIMA         PTCLDY    56  33  42 CALM      30.29S
$$

WAZ028-034-035-070300-
COLUMBIA BASIN

CITY           SKY/WX    TMP DP  RH WIND       PRES   REMARKS
EPHRATA        PTCLDY    51  34  52 CALM      30.28F
MOSES LAKE     PTCLDY    53  30  41 W3        30.29F
PASCO          PTCLDY    53  36  52 NW3       30.29S
HERMISTON, OR  PTCLDY    54  33  45 CALM      30.27F
$$

WAZ036>038-070300-
NORTHEAST WASHINGTON

CITY           SKY/WX    TMP DP  RH WIND       PRES   REMARKS
SPOKANE GEIGER MOCLDY    51  29  42 SW6       30.30S
SPOKANE FELTS  MOCLDY    53  28  38 CALM      30.30S
FAIRCHILD AFB  MOCLDY    52  28  40 SW3       30.30S
COEURDALENE,ID MOCLDY    50  27  40 CALM      30.29R
DEER PARK      MOCLDY    48  31  51 CALM      30.30S
$$

WAZ029>033-070300-
SOUTHEAST WASHINGTON

CITY           SKY/WX    TMP DP  RH WIND       PRES   REMARKS
PULLMAN        MOCLDY    48  32  53 CALM      30.33S
LEWISTON, ID   MOCLDY    54  30  40 CALM      30.31S
WALLA WALLA    PTCLDY    58  32  37 CALM      30.29S
PENDLETON, OR  PTCLDY    58  28  32 CALM      30.28F
$$


USA.gov is the U.S. government's official web portal to all federal, state and local government web resources and services.